Estación de San Felipe

Ultimos registro cada 15 minutos 71
Estación Fecha / Hora Temperatura Humedad Lluvia Velocidad Dirección Radiación Presion
71 San Felipe 05-05-2026 17:30 20,2 48,4 0 0,5 330 11,9 934,5
70 San Felipe 05-05-2026 17:15 21,2 46,4 0 1 338 18,1 934,6
69 San Felipe 05-05-2026 17:00 21,9 44,1 0 0,5 340 26,9 934,5
68 San Felipe 05-05-2026 16:45 23,9 40,4 0 0 341 90,6 934,5
67 San Felipe 05-05-2026 16:30 24,6 38,1 0 0 329 130,6 934,3
66 San Felipe 05-05-2026 16:15 27,5 31,1 0 0 330 106,9 934,4
65 San Felipe 05-05-2026 16:00 30,5 29 0 0 330 324,4 934,4
64 San Felipe 05-05-2026 15:45 30 29,5 0 0 293 336,9 934,4
63 San Felipe 05-05-2026 15:30 29,8 28,3 0 0 310 411,9 934,2
62 San Felipe 05-05-2026 15:15 28,1 29,3 0 0 330 141,9 934,5
61 San Felipe 05-05-2026 15:00 31 25,1 0 0 326 484,4 934,2
60 San Felipe 05-05-2026 14:45 31,9 26,2 0 0 300 588,1 933,9
59 San Felipe 05-05-2026 14:30 30 26,1 0 0 316 578,1 934,2
58 San Felipe 05-05-2026 14:15 31,5 24,9 0 0 334 571,9 934,1
57 San Felipe 05-05-2026 14:00 28,2 28,1 0 0 309 703,1 934,2
56 San Felipe 05-05-2026 13:45 28,9 26,4 0 0 241 316,9 934,5
55 San Felipe 05-05-2026 13:30 28,2 27,4 0 0 271 259,4 934,7
54 San Felipe 05-05-2026 13:15 27,7 26 0 0 298 644,4 934,7
53 San Felipe 05-05-2026 13:00 27,2 26,2 0 0 355 299,4 935,1
52 San Felipe 05-05-2026 12:45 27,4 28 0 0 340 691,9 935,5
51 San Felipe 05-05-2026 12:30 25,1 29,6 0 0 97 683,1 935,7
50 San Felipe 05-05-2026 12:15 25,3 28,2 0 0 74 308,1 935,9
49 San Felipe 05-05-2026 12:00 25,1 32,3 0 0 74 241,9 936,1
48 San Felipe 05-05-2026 11:45 23,7 31,2 0 0 133 215,6 936,3
47 San Felipe 05-05-2026 11:30 23,4 33,8 0 0 139 219,4 936,4
46 San Felipe 05-05-2026 11:15 23,9 32,6 0 0 118 536,9 936,1
45 San Felipe 05-05-2026 11:00 22,2 36 0 0 90 439,4 936,3
44 San Felipe 05-05-2026 10:45 22,5 36,4 0 0 112 521,9 936,4
43 San Felipe 05-05-2026 10:30 21,2 37,7 0 0 95 459,4 936,6
42 San Felipe 05-05-2026 10:15 19,1 42,9 0 0 122 243,1 936,9
41 San Felipe 05-05-2026 10:00 17,9 45,3 0 0 124 156,9 937
40 San Felipe 05-05-2026 09:45 17,9 46,8 0 0 202 48,1 937,3
39 San Felipe 05-05-2026 09:30 14,5 54,8 0 0 211 38,1 937,5
38 San Felipe 05-05-2026 09:15 12,7 63,3 0 0 211 38,1 937,6
37 San Felipe 05-05-2026 09:00 11 68,6 0 0 211 44,4 937,5
36 San Felipe 05-05-2026 08:45 10,4 68,9 0 0 211 61,9 937,8
35 San Felipe 05-05-2026 08:30 10 69,2 0 0 212 44,4 937,9
34 San Felipe 05-05-2026 08:15 9,1 72,4 0 0 212 43,1 937,8
33 San Felipe 05-05-2026 08:00 8,4 73 0 0 212 21,9 938,1
32 San Felipe 05-05-2026 07:45 7,7 74,3 0 0 212 9,4 937,9
31 San Felipe 05-05-2026 07:30 7 76,6 0 0 212 1,9 937,8
30 San Felipe 05-05-2026 07:15 7,1 76 0 0 212 0,6 937,9
29 San Felipe 05-05-2026 07:00 7,3 73,5 0 0 212 0,6 937,8
28 San Felipe 05-05-2026 06:45 7,6 72,5 0 0 212 0,6 937,6
27 San Felipe 05-05-2026 06:30 6,9 74,2 0 0 212 0,6 937,5
26 San Felipe 05-05-2026 06:15 7,1 75,4 0 0 212 0,6 937,2
25 San Felipe 05-05-2026 06:00 6,6 75,4 0 0 212 0,6 937,1
24 San Felipe 05-05-2026 05:45 6,8 75,4 0 0 212 0,6 937
23 San Felipe 05-05-2026 05:30 7 74,8 0 0 264 0,6 936,7
22 San Felipe 05-05-2026 05:15 7,1 75,8 0 0 340 0,6 936,6
21 San Felipe 05-05-2026 05:00 5,9 78,5 0 0 340 0,6 936,5
20 San Felipe 05-05-2026 04:45 5,9 76,7 0 0 340 0,6 936,4
19 San Felipe 05-05-2026 04:30 5,6 76,7 0 0 340 0,6 936,2
18 San Felipe 05-05-2026 04:15 6,2 74,2 0 0 340 0,6 936,4
17 San Felipe 05-05-2026 04:00 7,2 71,6 0 0 338 0,6 936,4
16 San Felipe 05-05-2026 03:45 6,3 75,5 0 0 338 0,6 936,4
15 San Felipe 05-05-2026 03:30 7,3 72,3 0 0 338 0,6 936,5
14 San Felipe 05-05-2026 03:15 7,5 72,2 0 0 338 0,6 936,7
13 San Felipe 05-05-2026 03:00 7,5 73 0 0 338 0,6 937
12 San Felipe 05-05-2026 02:45 7,8 72 0 0 338 0,6 937,2
11 San Felipe 05-05-2026 02:30 7,8 72,3 0 0 338 0,6 937,6
10 San Felipe 05-05-2026 02:15 8,2 70,8 0 0 338 0,6 937,7
9 San Felipe 05-05-2026 02:00 8 71,8 0 0 338 0,6 937,8
8 San Felipe 05-05-2026 01:45 7,7 72,8 0 0 338 0,6 937,9
7 San Felipe 05-05-2026 01:30 7,1 74,2 0 0 338 0,6 937,9
6 San Felipe 05-05-2026 01:15 7,6 72,5 0 0 338 0,6 938,1
5 San Felipe 05-05-2026 01:00 8 70,4 0 0 338 0,6 938,1
4 San Felipe 05-05-2026 00:45 7,6 72,1 0 0 338 0,6 938,2
3 San Felipe 05-05-2026 00:30 8,2 70,1 0 0 338 0,6 938,4
2 San Felipe 05-05-2026 00:15 9,1 67,6 0 0 338 0,6 938,5
1 San Felipe 05-05-2026 00:00 8,9 69,6 0 0 338 0,6 938,5